Weather in Donets

Ukraine / Kharkiv Region     49°30′29″N   36°34′16″E
temp.,
°C
wind,
m/s
gust,
m/s
humid.,
%
clouds,
%
prec.,
mm/h
press.,
hPa
HPBL,
m
2 july, sat
sat200:00+15ne411730 0.0 1017321
03:00+11ne39780 0.0 1019198
06:00+10nne49710 0.0 1020373
09:00+15nne67480 0.0 1021818
12:00+20nne67440 0.0 10201312
15:00+22nne68390 0.0 10191741
18:00+22n68464 0.0 10192046
21:00+17nnw37680 0.0 101997
3 july, sun
sun300:00+14nnw37800 0.0 1020111
03:00+13nw34860 0.0 102048
06:00+14nw38800 0.0 1020207
09:00+21nnw57533 0.0 1019774
12:00+25n56395 0.0 10181813
15:00+27n563717 0.0 10172504
18:00+26n45420 0.0 10171953
21:00+20nw33674 0.0 101835
4 july, mon
mon400:00+18nw33755 0.0 101748
03:00+16nw33814 0.0 101756
06:00+17nnw37832 0.0 1018183
09:00+24n34603 0.0 1018627
12:00+28nne34405 0.0 10172211
15:00+29ne453482 0.0 10162687
18:00+28nne544056 0.0 10161968
21:00+23n345824 0.0 101782
5 july, tue
tue500:00+19n227898 0.0 101812
03:00+18ne22810 0.0 101816
06:00+19ene11790 0.0 101959
09:00+25e22585 0.0 1019642
12:00+28ese324336 0.0 10182220
15:00+28ese543924 0.0 10181693
18:00+28e44375 0.0 10181541
21:00+22e33542 0.0 101829
6 july, wed
wed600:00+19ese23600 0.0 101823
03:00+18e22630 0.0 101911
06:00+18se23650 0.0 101968
09:00+26sse23440 0.0 1018484
12:00+30sse23310 0.0 10182299
15:00+31sse23280 0.0 10162597
18:00+31sse33280 0.0 10162703
21:00+24se33440 0.0 101625